When you browse on this site, cookies collect data to enhance your experience and personalize the content and advertising you see.
Visit our Privacy Policy to learn more. By continuing to use the site, you agree to this use of cookies and data.
  • In Lithuania
  • List of Countries
  • For 7 days
  • Water Temperature
  • Satellite Maps
  • Weather Map
  • Weather Widgets
  • user-avatar
    Login

    Hourly Weather Opytnyy

    Today, 21 April, Sunday

    Time Temperature Precipitation Wind Pressure Humidity
    00:00 +5°C° 0 mm 3 mps 759 mmHg 49%
    01:00 +4°C° 0 mm 3 mps 759 mmHg 50%
    02:00 +4°C° 0 mm 3 mps 759 mmHg 50%
    03:00 +4°C° 0 mm 3 mps 759 mmHg 51%
    04:00 +3°C° 0 mm 3 mps 759 mmHg 53%
    05:00 +3°C° 0 mm 3 mps 759 mmHg 54%
    06:00 +3°C° 0 mm 3 mps 759 mmHg 56%
    07:00 +5°C° 0 mm 4 mps 759 mmHg 52%
    08:00 +7°C° 0 mm 4 mps 759 mmHg 48%
    09:00 +9°C° 0 mm 5 mps 759 mmHg 44%
    10:00 +10°C° 0 mm 5 mps 759 mmHg 40%
    11:00 +12°C° 0 mm 5 mps 759 mmHg 36%
    12:00 +13°C° 0 mm 6 mps 759 mmHg 32%
    13:00 +14°C° 0 mm 6 mps 759 mmHg 32%
    14:00 +14°C° 0 mm 6 mps 759 mmHg 32%
    15:00 +14°C° 0 mm 6 mps 758 mmHg 32%
    16:00 +14°C° 0 mm 5 mps 758 mmHg 36%
    17:00 +13°C° 0 mm 5 mps 758 mmHg 39%
    18:00 +13°C° 0 mm 4 mps 758 mmHg 42%
    19:00 +12°C° 0 mm 4 mps 758 mmHg 43%
    20:00 +10°C° 0 mm 4 mps 759 mmHg 44%
    21:00 +8°C° 0 mm 4 mps 759 mmHg 45%
    22:00 +8°C° 0 mm 4 mps 759 mmHg 47%
    23:00 +7°C° 0 mm 4 mps 759 mmHg 48%

    Tomorrow, 22 April, Monday

    Time Temperature Precipitation Wind Pressure Humidity
    00:00 +7°C° 0 mm 3 mps 759 mmHg 49%
    01:00 +7°C° 0 mm 3 mps 759 mmHg 50%
    02:00 +5°C° 0 mm 3 mps 759 mmHg 51%
    03:00 +5°C° 0 mm 3 mps 759 mmHg 52%
    04:00 +5°C° 0 mm 3 mps 759 mmHg 54%
    05:00 +5°C° 0 mm 3 mps 759 mmHg 55%
    06:00 +4°C° 0 mm 3 mps 759 mmHg 57%
    07:00 +6°C° 0 mm 4 mps 760 mmHg 52%
    08:00 +8°C° 0 mm 4 mps 760 mmHg 47%
    09:00 +10°C° 0 mm 5 mps 760 mmHg 42%
    10:00 +13°C° 0 mm 5 mps 760 mmHg 39%
    11:00 +14°C° 0 mm 5 mps 760 mmHg 36%
    12:00 +15°C° 0 mm 5 mps 760 mmHg 33%
    13:00 +15°C° 0 mm 5 mps 760 mmHg 32%
    14:00 +15°C° 0 mm 5 mps 759 mmHg 32%
    15:00 +17°C° 0 mm 4 mps 759 mmHg 32%
    16:00 +15°C° 0 mm 4 mps 759 mmHg 35%
    17:00 +15°C° 0 mm 4 mps 759 mmHg 38%
    18:00 +14°C° 0 mm 3 mps 759 mmHg 42%
    19:00 +13°C° 0 mm 3 mps 760 mmHg 43%
    20:00 +12°C° 0 mm 3 mps 760 mmHg 44%
    21:00 +12°C° 0 mm 2 mps 760 mmHg 45%
    22:00 +10°C° 0 mm 2 mps 760 mmHg 47%
    23:00 +9°C° 0 mm 2 mps 761 mmHg 48%

    Day after tomorrow, 23 April, Tuesday

    Time Temperature Precipitation Wind Pressure Humidity
    00:00 +8°C° 0 mm 2 mps 761 mmHg 50%
    01:00 +8°C° 0 mm 2 mps 761 mmHg 50%
    02:00 +9°C° 0 mm 1 mps 761 mmHg 51%
    03:00 +8°C° 0 mm 1 mps 761 mmHg 51%
    04:00 +8°C° 0 mm 1 mps 761 mmHg 53%
    05:00 +9°C° 0 mm 1 mps 761 mmHg 54%
    06:00 +9°C° 0 mm 1 mps 762 mmHg 55%
    07:00 +10°C° 0 mm 1 mps 762 mmHg 52%
    08:00 +12°C° 0 mm 1 mps 762 mmHg 49%
    09:00 +13°C° 0 mm 2 mps 762 mmHg 46%
    10:00 +14°C° 0 mm 2 mps 762 mmHg 43%
    11:00 +15°C° 0 mm 2 mps 762 mmHg 41%
    12:00 +16°C° 0 mm 2 mps 762 mmHg 39%
    13:00 +16°C° 0 mm 2 mps 762 mmHg 39%
    14:00 +16°C° 0 mm 2 mps 762 mmHg 39%
    15:00 +16°C° 0 mm 2 mps 762 mmHg 40%
    16:00 +15°C° 0 mm 2 mps 762 mmHg 42%
    17:00 +15°C° 0 mm 2 mps 762 mmHg 44%
    18:00 +15°C° 0 mm 2 mps 762 mmHg 47%
    19:00 +14°C° 0 mm 2 mps 763 mmHg 48%
    20:00 +13°C° 0 mm 2 mps 763 mmHg 49%
    21:00 +12°C° 0 mm 2 mps 763 mmHg 50%
    22:00 +12°C° 0 mm 1 mps 763 mmHg 50%
    23:00 +12°C° 0 mm 1 mps 763 mmHg 50%

    24 April, Wednesday

    Time Temperature Precipitation Wind Pressure Humidity
    00:00 +11°C° 0 mm 0 mps 763 mmHg 51%
    01:00 +12°C° 0 mm 1 mps 763 mmHg 51%
    02:00 +11°C° 0 mm 1 mps 763 mmHg 51%
    03:00 +11°C° 0 mm 1 mps 763 mmHg 51%
    04:00 +10°C° 0 mm 2 mps 763 mmHg 55%
    05:00 +9°C° 0 mm 2 mps 763 mmHg 58%
    06:00 +8°C° 0 mm 2 mps 763 mmHg 62%
    07:00 +10°C° 0 mm 2 mps 763 mmHg 57%
    08:00 +12°C° 0 mm 3 mps 763 mmHg 52%
    09:00 +14°C° 0 mm 3 mps 763 mmHg 48%
    10:00 +16°C° 0 mm 3 mps 763 mmHg 45%
    11:00 +17°C° 0 mm 4 mps 762 mmHg 42%
    12:00 +19°C° 0 mm 4 mps 762 mmHg 39%
    13:00 +18°C° 0.2 mm 4 mps 762 mmHg 43%
    14:00 +18°C° 0.2 mm 4 mps 761 mmHg 48%
    15:00 +18°C° 0.2 mm 4 mps 761 mmHg 52%
    16:00 +17°C° 0.4 mm 3 mps 761 mmHg 55%
    17:00 +17°C° 0.4 mm 3 mps 761 mmHg 59%
    18:00 +16°C° 0.4 mm 3 mps 761 mmHg 63%
    19:00 +14°C° 0.2 mm 3 mps 761 mmHg 66%
    20:00 +14°C° 0.2 mm 3 mps 761 mmHg 69%
    21:00 +13°C° 0.2 mm 3 mps 761 mmHg 73%
    22:00 +12°C° 0 mm 3 mps 761 mmHg 75%
    23:00 +11°C° 0 mm 3 mps 761 mmHg 77%

    25 April, Thursday

    Time Temperature Precipitation Wind Pressure Humidity
    00:00 +11°C° 0 mm 3 mps 761 mmHg 79%
    01:00 +11°C° 0 mm 3 mps 761 mmHg 80%
    02:00 +10°C° 0 mm 3 mps 761 mmHg 82%
    03:00 +10°C° 0 mm 3 mps 761 mmHg 83%
    04:00 +10°C° 0 mm 2 mps 761 mmHg 84%
    05:00 +10°C° 0 mm 2 mps 761 mmHg 84%
    06:00 +10°C° 0 mm 2 mps 762 mmHg 84%
    07:00 +12°C° 0 mm 2 mps 762 mmHg 76%
    08:00 +14°C° 0 mm 2 mps 762 mmHg 69%
    09:00 +16°C° 0 mm 2 mps 762 mmHg 61%
    10:00 +18°C° 0 mm 3 mps 762 mmHg 55%
    11:00 +19°C° 0 mm 3 mps 762 mmHg 48%
    12:00 +20°C° 0 mm 3 mps 762 mmHg 42%
    13:00 +20°C° 0 mm 2 mps 762 mmHg 42%
    14:00 +20°C° 0 mm 2 mps 762 mmHg 42%
    15:00 +20°C° 0 mm 2 mps 762 mmHg 41%
    16:00 +21°C° 0 mm 1 mps 762 mmHg 44%
    17:00 +21°C° 0 mm 1 mps 762 mmHg 46%
    18:00 +19°C° 0 mm 0 mps 761 mmHg 48%
    19:00 +18°C° 0 mm 0 mps 761 mmHg 50%
    20:00 +16°C° 0 mm 0 mps 761 mmHg 52%
    21:00 +16°C° 0 mm 1 mps 762 mmHg 54%
    22:00 +15°C° 0 mm 1 mps 761 mmHg 56%
    23:00 +14°C° 0 mm 0 mps 761 mmHg 58%

    26 April, Friday

    Time Temperature Precipitation Wind Pressure Humidity
    00:00 +13°C° 0 mm 0 mps 761 mmHg 61%
    01:00 +13°C° 0 mm 0 mps 761 mmHg 62%
    02:00 +14°C° 0 mm 1 mps 761 mmHg 63%
    03:00 +13°C° 0 mm 1 mps 761 mmHg 65%
    04:00 +13°C° 0 mm 1 mps 761 mmHg 66%
    05:00 +13°C° 0 mm 1 mps 761 mmHg 67%
    06:00 +13°C° 0 mm 1 mps 761 mmHg 68%
    07:00 +15°C° 0 mm 1 mps 761 mmHg 63%
    08:00 +18°C° 0 mm 1 mps 761 mmHg 57%
    09:00 +20°C° 0 mm 1 mps 761 mmHg 52%
    10:00 +21°C° 0 mm 1 mps 761 mmHg 47%
    11:00 +21°C° 0 mm 0 mps 760 mmHg 43%
    12:00 +22°C° 0 mm 0 mps 760 mmHg 38%
    13:00 +22°C° 0 mm 0 mps 760 mmHg 38%
    14:00 +22°C° 0 mm 0 mps 759 mmHg 38%
    15:00 +22°C° 0 mm 0 mps 759 mmHg 38%
    16:00 +21°C° 0 mm 0 mps 759 mmHg 42%
    17:00 +20°C° 0 mm 0 mps 758 mmHg 45%
    18:00 +20°C° 0 mm 0 mps 758 mmHg 49%
    19:00 +19°C° 0 mm 0 mps 758 mmHg 50%
    20:00 +18°C° 0 mm 0 mps 758 mmHg 50%
    21:00 +17°C° 0 mm 0 mps 758 mmHg 51%
    22:00 +17°C° 0 mm 0 mps 758 mmHg 53%
    23:00 +16°C° 0 mm 0 mps 758 mmHg 55%
    Show more